Regional Weather Roundup
Issued by NWS

Home | Current Version | Previous Version | Text Only | Print | Product List | Glossary On
Versions: 1 2 3 4 5 6 7 8 9 10 11 12 13 14 15 16 17 18 19 20 21 22 23 24 25 26 27 28 29 30 31 32 33 34 35 36 37 38 39 40 41 42 43 44 45 46 47 48 49 50
000
ASUS46 KSTO 250515
RWRCA

NORTHERN AND CENTRAL CA REGIONAL WEATHER ROUNDUP
NATIONAL WEATHER SERVICE SACRAMENTO CA
1000 PM PDT MON JUL 24 2017

NOTE: FAIR INDICATES FEW OR NO CLOUDS BELOW 12,000 FEET WITH NO
SIGNIFICANT WEATHER AND/OR OBSTRUCTIONS TO VISIBILITY.

CAZ001-003-250600-
NORTHWEST AREA

CITY           SKY/WX    TMP DP  RH WIND       PRES   REMARKS
CRESCENT CITY  CLEAR     56  53  90 S3        29.87R
UKIAH          CLEAR     70  52  52 S8        29.85R
$$

CAZ006-505>513-250600-
BAY AREA

CITY           SKY/WX    TMP DP  RH WIND       PRES   REMARKS
SANTA ROSA     CLEAR     55  52  89 S6        29.88R
SAN RAFAEL     N/A       64  MM  MM MISG
NAPA           CLEAR     63  55  75 S9        29.87R
CONCORD        CLEAR     61  54  77 W12G24    29.86R
OAKLAND CITY   N/A      MM  MM  MM MISG
OAKLAND        PTCLDY    62  55  77 NW6       29.88R
SAN FRAN CITY  N/A       58  MM  82 MISG
SAN FRAN ARPT  PTCLDY    64  52  64 S10       29.87R
LIVERMORE      CLEAR     65  52  62 NW3       29.85R
HAYWARD        CLEAR     62  51  67 N8        29.87R
REDWOOD CITY   N/A       64  MM  72 MISG
MOFFETT ARPT   CLEAR     64  57  78 N8        29.88R
SAN JOSE ARPT  PTCLDY    68  55  63 SE9       29.87R
$$
CAZ034-037-514>518-250600-
CENTRAL COAST

CITY           SKY/WX    TMP DP  RH WIND       PRES   REMARKS
WATSONVILLE    CLOUDY    59  57  93 CALM      29.93R
SALINAS        CLOUDY    60  56  86 NW8       29.91R
MONTEREY       CLOUDY    60  55  83 S5        29.92R
SAN LUIS OBISP CLOUDY    62  57  83 SW3       29.92R
SANTA MARIA    CLOUDY    60  59  96 MISG      29.92R
$$
CAZ015-016-250600-
NORTHERN SACRAMENTO VALLEY

CITY           SKY/WX    TMP DP  RH WIND       PRES   REMARKS
REDDING        CLEAR     85  52  32 CALM      29.81R
RED BLUFF      CLEAR     81  52  36 SE7       29.81R
OROVILLE       CLEAR     81  49  32 SE8       29.82R
$$
CAZ016>018-250600-
SOUTHERN SACRAMENTO VALLEY

CITY           SKY/WX    TMP DP  RH WIND       PRES   REMARKS
AUBURN         CLEAR     73  48  40 CALM      29.89R
BEALE AFB      CLEAR     76  50  39 SE8       29.80R
LINCOLN        FAIR      75  45  33 S7        29.81R
MARYSVILLE     CLEAR     74  50  42 SE6       29.81R
SAC INTL ARPT  CLEAR     71  53  52 S9        29.81R
MATHER AIRPORT CLEAR     68  52  56 S6        29.83R
DOWNTOWN SAC   N/A       70  MM  MM MISG
SAC EXEC ARPT  CLEAR     67  52  58 SW12      29.82R
VACAVILLE      CLEAR     72  50  45 SW7       29.82S
TRAVIS AFB     CLEAR     64  53  67 W18       29.80R
$$
CAZ019>021-250600-
SAN JOAQUIN VALLEY

CITY           SKY/WX    TMP DP  RH WIND       PRES   REMARKS
STOCKTON       CLEAR     69  57  65 NW10      29.82R
MODESTO        CLEAR     75  59  57 NW10      29.80R
MERCED         CLEAR     81  58  45 MISG      29.78R
FRESNO         CLEAR     90  38  16 CALM      29.79R
HANFORD        CLEAR     85  38  18 W8        29.79R
PORTERVILLE      N/A     82  44  26 SE7       29.82R
BAKERSFIELD    PTCLDY    89  42  19 N13       29.80R
$$
CAZ011-012-071-250600-
NORTHERN MOUNTAINS

CITY           SKY/WX    TMP DP  RH WIND       PRES   REMARKS
YREKA          PTCLDY    81  51  35 N14       29.93R
MOUNT SHASTA   PTCLDY    69  44  40 CALM      30.00R
ALTURAS        LGT RAIN  67  53  61 E17       30.05F
$$
CAZ011-012-071-250600-
SIERRA NEVADA MTNS

CITY           SKY/WX    TMP DP  RH WIND       PRES   REMARKS
TRUCKEE        MOCLDY    61  43  51 CALM      30.16R
TAHOE VLY ARPT CLEAR     61  46  57 CALM      30.16R
MAMMOTH LAKES  FAIR      63  46  54 SE3       30.23R
$$



USA.gov is the U.S. government's official web portal to all federal, state and local government web resources and services.